| time (UTC) | temp C | wind direction | speed KPH | gust KPH | rain 1hr cm | rain 24hr cm | rain mn cm | humidity % | barometer mb |
| 20260506002959 | 18 | 358 | 14.5 | 29.0 | 0.00 | 0.00 | 0.00 | 75 | 1006.7 |
| 20260506002459 | 18 | 0 | 14.5 | 29.0 | 0.00 | 0.00 | 0.00 | 75 | 1006.6 |
| 20260506001959 | 19 | 8 | 22.5 | 27.4 | 0.00 | 0.00 | 0.00 | 74 | 1006.3 |
| 20260506001459 | 19 | 6 | 24.1 | 27.4 | 0.00 | 0.00 | 0.00 | 73 | 1006.3 |
| 20260506000959 | 20 | 355 | 19.3 | 27.4 | 0.00 | 0.00 | 0.00 | 73 | 1006.3 |
| 20260506000459 | 20 | 353 | 22.5 | 29.0 | 0.00 | 0.00 | 0.00 | 72 | 1006.4 |
| 20260505235959 | 20 | 356 | 20.9 | 29.0 | 0.00 | 0.00 | 0.00 | 71 | 1006.6 |
| 20260505235459 | 20 | 351 | 19.3 | 30.6 | 0.00 | 0.00 | 0.00 | 72 | 1006.7 |
| 20260505234959 | 20 | 4 | 27.4 | 30.6 | 0.00 | 0.00 | 0.00 | 71 | 1006.4 |
| 20260505234000 | 21 | 348 | 22.5 | 29.0 | 0.00 | 0.00 | 0.00 | 70 | 1006.4 |
| 20260505233459 | 21 | 342 | 11.3 | 35.4 | 0.00 | 0.00 | 0.00 | 69 | 1006.3 |
| 20260505232959 | 21 | 342 | 29.0 | 35.4 | 0.00 | 0.00 | 0.00 | 68 | 1006.5 |
| 20260505232500 | 21 | 345 | 17.7 | 27.4 | 0.00 | 0.00 | 0.00 | 69 | 1006.2 |
| 20260505231959 | 21 | 335 | 19.3 | 27.4 | 0.00 | 0.00 | 0.00 | 68 | 1006.0 |
| 20260505231459 | 21 | 334 | 20.9 | 29.0 | 0.00 | 0.00 | 0.00 | 70 | 1006.4 |
| 20260505230959 | 21 | 352 | 24.1 | 29.0 | 0.00 | 0.00 | 0.00 | 69 | 1005.5 |
| 20260505230459 | 22 | 3 | 22.5 | 29.0 | 0.00 | 0.00 | 0.00 | 69 | 1006.0 |
| 20260505230029 | 22 | 333 | 22.5 | 30.6 | 0.00 | 0.00 | 0.00 | 69 | 1006.2 |
| 20260505225500 | 22 | 347 | 24.1 | 33.8 | 0.00 | 0.00 | 0.00 | 68 | 1006.0 |
| 20260505225000 | 22 | 337 | 27.4 | 33.8 | 0.00 | 0.00 | 0.00 | 67 | 1005.8 |
| 20260505224459 | 23 | 337 | 22.5 | 30.6 | 0.00 | 0.00 | 0.00 | 66 | 1005.9 |
| 20260505223959 | 23 | 342 | 27.4 | 30.6 | 0.00 | 0.00 | 0.00 | 65 | 1005.8 |
| 20260505223459 | 24 | 346 | 22.5 | 25.7 | 0.00 | 0.00 | 0.00 | 63 | 1005.8 |
| 20260505223000 | 25 | 343 | 19.3 | 25.7 | 0.00 | 0.00 | 0.00 | 62 | 1005.6 |
| 20260505222459 | 25 | 327 | 22.5 | 32.2 | 0.00 | 0.00 | 0.00 | 62 | 1005.5 |
| 20260505221000 | 25 | 333 | 20.9 | 27.4 | 0.00 | 0.00 | 0.00 | 61 | 1005.2 |
| 20260505220459 | 25 | 322 | 16.1 | 27.4 | 0.00 | 0.00 | 0.00 | 61 | 1005.1 |
| 20260505215959 | 26 | 307 | 27.4 | 29.0 | 0.00 | 0.00 | 0.00 | 60 | 1005.0 |
| 20260505215500 | 26 | 312 | 20.9 | 29.0 | 0.00 | 0.00 | 0.00 | 59 | 1005.0 |
| 20260505215000 | 26 | 331 | 24.1 | 29.0 | 0.00 | 0.00 | 0.00 | 58 | 1004.9 |
| 20260505214500 | 27 | 337 | 20.9 | 27.4 | 0.00 | 0.00 | 0.00 | 59 | 1004.7 |
| 20260505213959 | 27 | 331 | 19.3 | 29.0 | 0.00 | 0.00 | 0.00 | 59 | 1004.9 |
| 20260505213459 | 26 | 333 | 17.7 | 29.0 | 0.00 | 0.00 | 0.00 | 58 | 1004.9 |
| 20260505212459 | 27 | 330 | 24.1 | 29.0 | 0.00 | 0.00 | 0.00 | 58 | 1004.9 |
| 20260505212000 | 27 | 321 | 17.7 | 29.0 | 0.00 | 0.00 | 0.00 | 56 | 1004.8 |
| 20260505211459 | 27 | 303 | 22.5 | 29.0 | 0.00 | 0.00 | 0.00 | 54 | 1004.9 |
| 20260505210959 | 27 | 330 | 22.5 | 30.6 | 0.00 | 0.00 | 0.00 | 53 | 1005.0 |
| 20260505210459 | 28 | 303 | 22.5 | 30.6 | 0.00 | 0.00 | 0.00 | 52 | 1005.0 |
| 20260505205959 | 28 | 327 | 20.9 | 29.0 | 0.00 | 0.00 | 0.00 | 54 | 1005.1 |
| 20260505205459 | 28 | 306 | 19.3 | 25.7 | 0.00 | 0.00 | 0.00 | 54 | 1005.0 |
| 20260505204459 | 28 | 314 | 16.1 | 29.0 | 0.00 | 0.00 | 0.00 | 49 | 1005.1 |
| 20260505204000 | 28 | 322 | 14.5 | 29.0 | 0.00 | 0.00 | 0.00 | 47 | 1005.3 |
| 20260505203459 | 28 | 315 | 19.3 | 27.4 | 0.00 | 0.00 | 0.00 | 45 | 1005.2 |
| 20260505202959 | 28 | 299 | 16.1 | 29.0 | 0.00 | 0.00 | 0.00 | 44 | 1005.2 |
| 20260505202459 | 27 | 296 | 22.5 | 30.6 | 0.00 | 0.00 | 0.00 | 43 | 1005.2 |
| 20260505201959 | 27 | 296 | 20.9 | 32.2 | 0.00 | 0.00 | 0.00 | 42 | 1005.2 |
| 20260505201459 | 28 | 286 | 22.5 | 32.2 | 0.00 | 0.00 | 0.00 | 41 | 1005.0 |
| 20260505201001 | 28 | 295 | 27.4 | 32.2 | 0.00 | 0.00 | 0.00 | 41 | 1005.0 |
| 20260505200459 | 28 | 310 | 27.4 | 41.8 | 0.00 | 0.00 | 0.00 | 42 | 1005.2 |
| 20260505194959 | 30 | 252 | 22.5 | 30.6 | 0.00 | 0.00 | 0.00 | 47 | 1005.0 |
| 20260505194459 | 30 | 263 | 27.4 | 30.6 | 0.00 | 0.00 | 0.00 | 46 | 1005.0 |
| 20260505194000 | 29 | 255 | 24.1 | 29.0 | 0.00 | 0.00 | 0.00 | 46 | 1005.0 |
| 20260505193459 | 30 | 254 | 20.9 | 29.0 | 0.00 | 0.00 | 0.00 | 48 | 1005.0 |
| 20260505192959 | 29 | 247 | 22.5 | 29.0 | 0.00 | 0.00 | 0.00 | 50 | 1005.0 |
| 20260505192000 | 30 | 273 | 29.0 | 37.0 | 0.00 | 0.00 | 0.00 | 50 | 1005.1 |
| 20260505191500 | 30 | 263 | 30.6 | 33.8 | 0.00 | 0.00 | 0.00 | 51 | 1004.8 |
| 20260505190959 | 29 | 253 | 25.7 | 33.8 | 0.00 | 0.00 | 0.00 | 52 | 1004.8 |
| 20260505185959 | 29 | 233 | 24.1 | 35.4 | 0.00 | 0.00 | 0.00 | 57 | 1004.9 |
| 20260505185459 | 29 | 252 | 24.1 | 32.2 | 0.00 | 0.00 | 0.00 | 57 | 1004.8 |
| 20260505185000 | 29 | 244 | 24.1 | 30.6 | 0.00 | 0.00 | 0.00 | 57 | 1004.8 |
| 20260505183500 | 29 | 247 | 22.5 | 32.2 | 0.00 | 0.00 | 0.00 | 54 | 1004.7 |
| 20260505183000 | 29 | 236 | 19.3 | 33.8 | 0.00 | 0.00 | 0.00 | 54 | 1004.8 |
| 20260505182000 | 28 | 244 | 30.6 | 35.4 | 0.00 | 0.00 | 0.00 | 55 | 1004.9 |
| 20260505181459 | 28 | 240 | 27.4 | 30.6 | 0.00 | 0.00 | 0.00 | 54 | 1004.9 |
| 20260505181001 | 28 | 238 | 22.5 | 33.8 | 0.00 | 0.00 | 0.00 | 56 | 1004.9 |
| 20260505175959 | 28 | 251 | 27.4 | 35.4 | 0.00 | 0.00 | 0.00 | 56 | 1004.9 |
| 20260505175500 | 28 | 225 | 29.0 | 38.6 | 0.00 | 0.00 | 0.00 | 56 | 1004.9 |
| 20260505175000 | 28 | 214 | 20.9 | 38.6 | 0.00 | 0.00 | 0.00 | 60 | 1005.0 |
| 20260505174459 | 28 | 230 | 22.5 | 33.8 | 0.00 | 0.00 | 0.00 | 64 | 1005.0 |
| 20260505173459 | 28 | 218 | 22.5 | 30.6 | 0.00 | 0.00 | 0.00 | 65 | 1005.1 |
| 20260505173000 | 27 | 213 | 30.6 | 37.0 | 0.00 | 0.00 | 0.00 | 65 | 1004.9 |
| 20260505172000 | 27 | 230 | 22.5 | 37.0 | 0.00 | 0.00 | 0.00 | 66 | 1004.8 |
| 20260505170459 | 26 | 198 | 17.7 | 29.0 | 0.00 | 0.00 | 0.00 | 71 | 1004.8 |
| 20260505170030 | 26 | 192 | 11.3 | 32.2 | 0.00 | 0.00 | 0.00 | 71 | 1004.9 |
| 20260505165459 | 25 | 186 | 14.5 | 32.2 | 0.00 | 0.00 | 0.00 | 72 | 1004.9 |
| 20260505164959 | 25 | 191 | 11.3 | 29.0 | 0.00 | 0.00 | 0.00 | 74 | 1005.0 |
| 20260505164459 | 25 | 213 | 19.3 | 29.0 | 0.00 | 0.00 | 0.00 | 74 | 1004.9 |
| 20260505163959 | 25 | 205 | 17.7 | 29.0 | 0.00 | 0.00 | 0.00 | 74 | 1004.8 |
| 20260505163459 | 24 | 207 | 24.1 | 24.1 | 0.00 | 0.00 | 0.00 | 74 | 1004.7 |
| 20260505162959 | 24 | 198 | 20.9 | 24.1 | 0.00 | 0.00 | 0.00 | 75 | 1004.7 |
| 20260505162530 | 24 | 185 | 16.1 | 25.7 | 0.00 | 0.00 | 0.00 | 76 | 1004.7 |
| 20260505161529 | 24 | 210 | 14.5 | 25.7 | 0.00 | 0.00 | 0.00 | 76 | 1004.6 |
| 20260505161005 | 24 | 212 | 17.7 | 29.0 | 0.00 | 0.00 | 0.00 | 77 | 1004.8 |
| 20260505160529 | 24 | 207 | 17.7 | 29.0 | 0.00 | 0.00 | 0.00 | 76 | 1004.7 |
| 20260505152959 | 23 | 222 | 20.9 | 40.2 | 0.00 | 0.00 | 0.00 | 76 | 1004.4 |
| 20260505152501 | 23 | 213 | 20.9 | 40.2 | 0.00 | 0.00 | 0.00 | 76 | 1004.4 |
| 20260505151501 | 23 | 196 | 20.9 | 27.4 | 0.00 | 0.00 | 0.00 | 76 | 1004.2 |
| 20260505150959 | 23 | 224 | 27.4 | 27.4 | 0.00 | 0.00 | 0.00 | 76 | 1004.2 |
| 20260505150459 | 23 | 211 | 19.3 | 33.8 | 0.00 | 0.00 | 0.00 | 78 | 1004.3 |
| 20260505140459 | 22 | 205 | 17.7 | 25.7 | 0.00 | 0.00 | 0.00 | 83 | 1004.1 |
| 20260505125000 | 20 | 190 | 14.5 | 17.7 | 0.00 | 0.00 | 0.00 | 90 | 1004.1 |
| 20260505124459 | 20 | 188 | 14.5 | 17.7 | 0.00 | 0.00 | 0.00 | 90 | 1004.1 |
| 20260505123500 | 20 | 194 | 12.9 | 17.7 | 0.00 | 0.00 | 0.00 | 91 | 1004.0 |
| 20260505122459 | 20 | 186 | 11.3 | 19.3 | 0.00 | 0.00 | 0.00 | 92 | 1003.7 |
| 20260505121500 | 20 | 192 | 12.9 | 22.5 | 0.00 | 0.00 | 0.00 | 92 | 1003.4 |
| 20260505121001 | 20 | 199 | 16.1 | 22.5 | 0.00 | 0.00 | 0.00 | 92 | 1003.3 |
| 20260505120501 | 20 | 193 | 16.1 | 24.1 | 0.00 | 0.00 | 0.00 | 92 | 1003.3 |
| 20260505120031 | 20 | 198 | 14.5 | 24.1 | 0.00 | 0.00 | 0.00 | 92 | 1003.3 |
| 20260505115531 | 20 | 182 | 14.5 | 20.9 | 0.00 | 0.00 | 0.00 | 92 | 1003.4 |
| 20260505115001 | 20 | 192 | 14.5 | 20.9 | 0.00 | 0.00 | 0.00 | 92 | 1003.4 |
| 20260505114500 | 20 | 212 | 20.9 | 22.5 | 0.00 | 0.00 | 0.00 | 92 | 1003.4 |
| 20260505114000 | 20 | 193 | 16.1 | 22.5 | 0.00 | 0.00 | 0.00 | 92 | 1003.3 |
| 20260505113530 | 20 | 199 | 11.3 | 19.3 | 0.00 | 0.00 | 0.00 | 92 | 1003.3 |
| 20260505112459 | 20 | 200 | 17.7 | 20.9 | 0.00 | 0.00 | 0.00 | 92 | 1003.3 |
| 20260505111959 | 20 | 190 | 11.3 | 22.5 | 0.00 | 0.00 | 0.00 | 92 | 1003.4 |
| 20260505111459 | 20 | 204 | 16.1 | 22.5 | 0.00 | 0.00 | 0.00 | 92 | 1003.4 |
| 20260505111000 | 20 | 208 | 22.5 | 22.5 | 0.00 | 0.00 | 0.00 | 92 | 1003.3 |
| 20260505110500 | 20 | 203 | 17.7 | 20.9 | 0.00 | 0.00 | 0.00 | 92 | 1003.4 |
| 20260505102000 | 20 | 207 | 20.9 | 30.6 | 0.00 | 0.00 | 0.00 | 89 | 1003.3 |
| 20260505101500 | 20 | 208 | 25.7 | 30.6 | 0.00 | 0.00 | 0.00 | 89 | 1003.3 |
| 20260505101000 | 20 | 208 | 14.5 | 27.4 | 0.00 | 0.00 | 0.00 | 89 | 1003.4 |
| 20260505095500 | 20 | 194 | 19.3 | 27.4 | 0.00 | 0.00 | 0.00 | 88 | 1003.4 |
| 20260505094459 | 20 | 195 | 19.3 | 29.0 | 0.00 | 0.00 | 0.00 | 88 | 1003.4 |
| 20260505094000 | 21 | 201 | 14.5 | 29.0 | 0.00 | 0.00 | 0.00 | 87 | 1003.5 |
| 20260505092500 | 21 | 185 | 19.3 | 24.1 | 0.00 | 0.00 | 0.00 | 86 | 1003.2 |
| 20260505092000 | 21 | 196 | 16.1 | 24.1 | 0.00 | 0.00 | 0.00 | 86 | 1003.3 |
| 20260505091500 | 21 | 179 | 17.7 | 25.7 | 0.00 | 0.00 | 0.00 | 85 | 1003.3 |
| 20260505091000 | 21 | 194 | 22.5 | 30.6 | 0.00 | 0.00 | 0.00 | 85 | 1003.4 |
| 20260505090500 | 21 | 207 | 25.7 | 30.6 | 0.00 | 0.00 | 0.00 | 84 | 1003.5 |
| 20260505090000 | 21 | 198 | 16.1 | 29.0 | 0.00 | 0.00 | 0.00 | 84 | 1003.6 |
| 20260505085500 | 21 | 209 | 25.7 | 29.0 | 0.00 | 0.00 | 0.00 | 83 | 1003.5 |
| 20260505085000 | 21 | 195 | 20.9 | 29.0 | 0.00 | 0.00 | 0.00 | 83 | 1003.5 |
| 20260505084530 | 21 | 201 | 20.9 | 29.0 | 0.00 | 0.00 | 0.00 | 83 | 1003.4 |
| 20260505084000 | 21 | 189 | 19.3 | 29.0 | 0.00 | 0.00 | 0.00 | 82 | 1003.5 |
| 20260505083500 | 21 | 197 | 19.3 | 32.2 | 0.00 | 0.00 | 0.00 | 81 | 1003.6 |
| 20260505083000 | 21 | 186 | 22.5 | 33.8 | 0.00 | 0.00 | 0.00 | 81 | 1003.4 |
| 20260505082500 | 21 | 211 | 32.2 | 33.8 | 0.00 | 0.00 | 0.00 | 80 | 1003.4 |
| 20260505082000 | 21 | 195 | 22.5 | 32.2 | 0.00 | 0.00 | 0.00 | 80 | 1003.5 |
| 20260505081500 | 21 | 195 | 17.7 | 32.2 | 0.00 | 0.00 | 0.00 | 80 | 1003.6 |
| 20260505081000 | 21 | 207 | 19.3 | 32.2 | 0.00 | 0.00 | 0.00 | 80 | 1003.6 |
| 20260505080500 | 22 | 198 | 17.7 | 32.2 | 0.00 | 0.00 | 0.00 | 79 | 1003.5 |
| 20260505080000 | 21 | 202 | 24.1 | 25.7 | 0.00 | 0.00 | 0.00 | 79 | 1003.5 |
| 20260505075500 | 22 | 181 | 20.9 | 29.0 | 0.00 | 0.00 | 0.00 | 79 | 1003.5 |
| 20260505074500 | 22 | 201 | 22.5 | 27.4 | 0.00 | 0.00 | 0.00 | 78 | 1003.8 |
| 20260505074000 | 22 | 208 | 19.3 | 25.7 | 0.00 | 0.00 | 0.00 | 78 | 1003.9 |
| 20260505073500 | 22 | 185 | 16.1 | 25.7 | 0.00 | 0.00 | 0.00 | 78 | 1004.0 |
| 20260505073000 | 22 | 199 | 17.7 | 24.1 | 0.00 | 0.00 | 0.00 | 78 | 1004.1 |
| 20260505072500 | 22 | 202 | 20.9 | 25.7 | 0.00 | 0.00 | 0.00 | 77 | 1004.2 |
| 20260505072000 | 22 | 187 | 14.5 | 29.0 | 0.00 | 0.00 | 0.00 | 77 | 1004.5 |
| 20260505071500 | 22 | 195 | 20.9 | 30.6 | 0.00 | 0.00 | 0.00 | 76 | 1004.5 |
| 20260505071000 | 22 | 207 | 24.1 | 30.6 | 0.00 | 0.00 | 0.00 | 76 | 1004.6 |
| 20260505070000 | 22 | 209 | 24.1 | 29.0 | 0.00 | 0.00 | 0.00 | 75 | 1004.6 |
| 20260505065500 | 22 | 203 | 20.9 | 29.0 | 0.00 | 0.00 | 0.00 | 75 | 1004.7 |
| 20260505065000 | 22 | 203 | 27.4 | 32.2 | 0.00 | 0.00 | 0.00 | 74 | 1004.6 |
| 20260505064500 | 22 | 200 | 19.3 | 32.2 | 0.00 | 0.00 | 0.00 | 74 | 1004.7 |
| 20260505064000 | 22 | 193 | 20.9 | 29.0 | 0.00 | 0.00 | 0.00 | 74 | 1004.7 |
| 20260505063500 | 23 | 195 | 20.9 | 29.0 | 0.00 | 0.00 | 0.00 | 74 | 1004.8 |
| 20260505063000 | 23 | 196 | 27.4 | 30.6 | 0.00 | 0.00 | 0.00 | 73 | 1004.7 |
| 20260505062500 | 23 | 208 | 22.5 | 33.8 | 0.00 | 0.00 | 0.00 | 73 | 1004.7 |
| 20260505062000 | 23 | 199 | 17.7 | 33.8 | 0.00 | 0.00 | 0.00 | 73 | 1004.7 |
| 20260505061500 | 23 | 197 | 25.7 | 29.0 | 0.00 | 0.00 | 0.00 | 72 | 1004.8 |
| 20260505060500 | 23 | 189 | 24.1 | 41.8 | 0.00 | 0.00 | 0.00 | 72 | 1004.9 |
| 20260505060000 | 23 | 194 | 27.4 | 41.8 | 0.00 | 0.00 | 0.00 | 71 | 1005.0 |
| 20260505055500 | 23 | 205 | 24.1 | 27.4 | 0.00 | 0.00 | 0.00 | 71 | 1005.1 |
| 20260505055000 | 23 | 176 | 20.9 | 30.6 | 0.00 | 0.00 | 0.00 | 72 | 1005.0 |
| 20260505054000 | 23 | 190 | 29.0 | 30.6 | 0.00 | 0.00 | 0.00 | 71 | 1004.9 |
| 20260505053000 | 23 | 196 | 14.5 | 30.6 | 0.00 | 0.00 | 0.00 | 72 | 1005.0 |
| 20260505052000 | 23 | 181 | 19.3 | 29.0 | 0.00 | 0.00 | 0.00 | 72 | 1005.0 |
| 20260505051530 | 23 | 175 | 22.5 | 25.7 | 0.00 | 0.00 | 0.00 | 73 | 1005.0 |
| 20260505051001 | 23 | 192 | 25.7 | 25.7 | 0.00 | 0.00 | 0.00 | 73 | 1005.0 |
| 20260505050500 | 23 | 175 | 22.5 | 22.5 | 0.00 | 0.00 | 0.00 | 74 | 1005.1 |
| 20260505041500 | 22 | 170 | 16.1 | 29.0 | 0.00 | 0.00 | 0.00 | 75 | 1005.4 |
| 20260505040000 | 22 | 165 | 17.7 | 22.5 | 0.00 | 0.00 | 0.00 | 75 | 1005.4 |
| 20260505035500 | 22 | 169 | 17.7 | 20.9 | 0.00 | 0.00 | 0.00 | 75 | 1005.4 |
| 20260505035000 | 22 | 180 | 12.9 | 22.5 | 0.00 | 0.00 | 0.00 | 75 | 1005.4 |
| 20260505034500 | 22 | 165 | 14.5 | 24.1 | 0.00 | 0.00 | 0.00 | 74 | 1005.5 |
| 20260505033500 | 23 | 177 | 20.9 | 27.4 | 0.00 | 0.00 | 0.00 | 74 | 1005.3 |
| 20260505033000 | 23 | 166 | 20.9 | 29.0 | 0.00 | 0.00 | 0.00 | 73 | 1005.3 |
| 20260505032531 | 23 | 183 | 17.7 | 32.2 | 0.00 | 0.00 | 0.00 | 73 | 1005.2 |
| 20260505032000 | 23 | 160 | 19.3 | 32.2 | 0.00 | 0.00 | 0.00 | 73 | 1005.2 |
| 20260505031502 | 23 | 154 | 25.7 | 30.6 | 0.00 | 0.00 | 0.00 | 73 | 1005.2 |
| 20260505031000 | 22 | 166 | 16.1 | 27.4 | 0.00 | 0.00 | 0.00 | 74 | 1005.2 |
| 20260505030500 | 22 | 0 | 0.0 | 27.4 | 0.00 | 0.00 | 0.00 | 74 | 1005.4 |
| 20260505025500 | 22 | 158 | 20.9 | 20.9 | 0.00 | 0.00 | 0.00 | 74 | 1005.5 |
| 20260505025000 | 22 | 162 | 14.5 | 20.9 | 0.00 | 0.00 | 0.00 | 75 | 1005.5 |
| 20260505024501 | 22 | 145 | 17.7 | 24.1 | 0.00 | 0.00 | 0.00 | 75 | 1005.5 |
| 20260505024000 | 22 | 0 | 0.0 | 24.1 | 0.00 | 0.00 | 0.00 | 74 | 1005.5 |
| 20260505023500 | 22 | 0 | 0.0 | 22.5 | 0.00 | 0.00 | 0.00 | 74 | 1005.5 |
| 20260505023001 | 22 | 0 | 0.0 | 22.5 | 0.00 | 0.00 | 0.00 | 74 | 1005.4 |
| 20260505022500 | 22 | 0 | 0.0 | 24.1 | 0.00 | 0.00 | 0.00 | 74 | 1005.4 |
| 20260505022000 | 22 | 159 | 24.1 | 27.4 | 0.00 | 0.00 | 0.00 | 74 | 1005.4 |
| 20260505021000 | 22 | 0 | 0.0 | 22.5 | 0.00 | 0.00 | 0.00 | 74 | 1005.5 |
| 20260505020500 | 22 | 0 | 0.0 | 19.3 | 0.00 | 0.00 | 0.00 | 74 | 1005.6 |
| 20260505020000 | 23 | 155 | 17.7 | 20.9 | 0.00 | 0.00 | 0.00 | 73 | 1005.6 |
| 20260505015000 | 23 | 0 | 0.0 | 24.1 | 0.00 | 0.00 | 0.00 | 72 | 1005.3 |
| 20260505014500 | 23 | 0 | 0.0 | 24.1 | 0.00 | 0.00 | 0.00 | 71 | 1005.2 |
| 20260505014000 | 23 | 162 | 16.1 | 24.1 | 0.00 | 0.00 | 0.00 | 71 | 1005.3 |
| 20260505013500 | 23 | 175 | 17.7 | 24.1 | 0.00 | 0.00 | 0.00 | 71 | 1005.2 |
| 20260505013000 | 23 | 166 | 12.9 | 20.9 | 0.00 | 0.00 | 0.00 | 71 | 1005.3 |
| 20260505012501 | 23 | 171 | 16.1 | 24.1 | 0.00 | 0.00 | 0.00 | 70 | 1005.2 |
| 20260505012001 | 23 | 165 | 17.7 | 24.1 | 0.00 | 0.00 | 0.00 | 70 | 1005.2 |
| 20260505011500 | 23 | 171 | 14.5 | 20.9 | 0.00 | 0.00 | 0.00 | 69 | 1005.3 |
| 20260505011000 | 23 | 169 | 19.3 | 20.9 | 0.00 | 0.00 | 0.00 | 69 | 1005.3 |
| 20260505010500 | 23 | 171 | 17.7 | 24.1 | 0.00 | 0.00 | 0.00 | 68 | 1005.3 |
| 20260505010000 | 24 | 163 | 17.7 | 24.1 | 0.00 | 0.00 | 0.00 | 68 | 1005.3 |
| 20260505005001 | 24 | 177 | 17.7 | 27.4 | 0.00 | 0.00 | 0.00 | 66 | 1005.4 |
| 20260505004001 | 25 | 190 | 16.1 | 22.5 | 0.00 | 0.00 | 0.00 | 65 | 1005.4 |
| 20260505003500 | 25 | 175 | 16.1 | 24.1 | 0.00 | 0.00 | 0.00 | 64 | 1005.4 |